Location: ??
(31.9467°N, 34.8903°E)
Time: 12:17:32
(UTC+00:00)

Cosmos 1315 Rocket - Pass Details

Date: 29 October 2020
Orbit: 530 x 567 km, 81.2° (Epoch: 26 November)

Event Time Altitude Azimuth Distance (km) Brightness Sun altitude
Rises 16:00:31 0° 186° (S) 2,663 6.5 -14.8°
Reaches altitude 10° 16:02:38 10° 186° (S) 1,781 5.6 -15.3°
Maximum altitude 16:06:33 89° 105° (ESE) 544 2.7 -16.1°
Drops below altitude 10° 16:10:33 10° 8° (N) 1,813 5.3 -17.0°
Sets 16:12:44 0° 8° (N) 2,716 6.2 -17.4°
